RH
100 98 97 98 98 97 98 98 96 88 48 23 16 10 6 5 4 4 3 3 3 5 7 8 8 8 8
98 97 97 99 97 97 96 96 78 18 13 7 5 4 4 3 3 3 5 8 10 11 12 14 14 14 13
96 92 93 97 97 87 38 17 12 6 5 4 4 4 4 7 9 12 13 17 21 23 23 23 23 24 24
97 99 93 40 18 16 11 7 6 5 4 4 6 13 20 19 20 25 26 25 22 20 22 25 27 30 32
65 21 18 14 9 7 7 6 5 5 7 14 22 27 32 33 32 28 24 21 21 26 26 28 31 34 38
17 12 9 8 7 6 5 6 6 26 28 29 40 37 33 28 28 24 24 26 28 28 26 25 28 34 39
8 7 6 6 6 6 7 15 27 37 38 36 38 29 36 38 31 29 26 26 30 29 26 28 31 34 43
4 4 5 6 6 16 28 31 41 48 43 34 38 42 49 45 42 31 32 37 39 40 38 36 39 39 41
4 5 6 14 23 29 39 44 43 48 51 42 43 46 48 49 54 58 53 49 50 50 49 49 45 47 48
6 14 22 28 36 41 43 40 42 44 53 45 44 45 40 48 52 60 67 71 68 70 68 68 65 58 49
18 24 32 40 43 44 40 36 44 54 68 57 50 54 48 47 52 61 71 72 70 70 68 69 69 68 65
27 34 41 46 46 46 48 49 54 60 68 69 58 64 61 55 55 65 76 69 68 74 71 71 74 77 78
36 41 46 49 50 54 57 59 69 79 88 92 80 69 67 62 60 71 83 72 82 72 67 67 71 75 76
41 46 50 50 51 54 54 53 54 62 77 84 68 59 64 67 66 74 91 83 83 76 72 77 81 88 82
43 48 50 51 55 53 53 52 53 54 63 61 38 37 53 66 67 87 81 78 74 75 80 79 97 96 88
48 51 52 56 58 59 53 49 54 65 66 52 45 42 47 63 78 82 86 73 68 71 78 76 88 97 95
53 54 55 58 56 49 47 48 58 66 66 68 56 47 50 53 63 95 79 75 74 74 84 85 84 90 90
Wind_Speed
51 49 45 44 44 47 45 45 48 47 47 50 51 53 54 56 57 59 58 56 55 52 49 47 47 46 47
43 41 41 40 43 45 46 47 48 46 48 51 52 53 54 55 55 54 50 46 44 43 43 43 44 45 46
40 39 41 43 45 45 44 44 45 45 48 50 51 51 49 47 45 41 40 41 43 44 46 48 48 49 48
37 43 45 42 41 42 43 44 44 44 47 47 43 40 37 37 37 39 41 44 47 48 48 47 47 48 48
42 41 40 40 42 43 45 45 43 42 40 35 34 32 34 36 37 40 42 44 45 44 43 42 41 42 43
41 41 41 42 43 42 41 40 35 26 28 24 29 31 33 35 33 36 38 40 40 38 38 38 40 41 43
42 40 41 39 39 34 30 26 23 25 29 30 31 33 31 28 30 33 35 37 37 36 37 38 38 39 41
42 37 33 29 25 21 20 23 24 25 32 35 30 31 27 24 25 28 32 35 37 37 36 37 38 37 39
24 20 17 15 16 18 22 25 27 24 29 33 30 34 26 22 22 24 27 30 33 35 37 38 38 40 40
9 8 10 13 17 21 24 27 30 29 34 31 29 36 31 20 21 23 25 27 31 34 35 37 37 39 40
6 10 13 16 19 22 25 27 28 29 34 38 32 33 35 33 20 24 26 27 31 31 32 35 36 37 37
9 11 14 17 18 21 25 27 28 29 30 37 39 38 38 35 32 25 26 28 29 30 30 29 30 31 32
11 13 15 16 19 20 23 25 26 28 31 35 39 39 38 38 38 31 34 25 25 26 27 28 29 30 31
13 15 15 16 20 22 23 25 26 27 30 33 35 38 36 35 37 36 32 33 27 27 29 26 26 27 28
14 15 16 16 19 23 26 28 30 29 27 31 36 38 36 33 32 32 33 28 28 25 24 21 18 21 23
16 16 16 18 19 23 27 30 31 30 30 31 34 35 33 31 29 27 23 25 23 21 21 19 13 17 16
18 17 17 19 22 23 26 28 29 31 31 33 36 39 39 35 28 26 29 25 25 23 24 24 22 18 21
Wind_Direction
285 283 280 281 280 281 279 281 282 284 284 286 287 287 287 287 287 287 287 288 287 287 287 286 285 283 281
287 282 280 280 278 279 282 284 286 287 287 286 287 288 289 288 287 287 288 289 289 288 286 285 283 280 278
285 284 284 280 279 285 287 286 287 290 290 291 291 290 289 287 287 290 290 288 288 288 287 285 282 280 278
283 279 279 283 286 287 287 291 293 292 291 290 290 287 288 289 290 289 289 289 289 288 287 287 287 285 282
281 283 289 292 291 292 295 294 294 294 289 289 288 290 289 289 292 292 291 289 287 286 288 290 289 287 283
288 292 292 292 293 295 294 293 295 290 288 290 287 289 293 294 294 289 285 284 285 288 290 290 289 286 285
294 295 297 299 297 298 299 301 301 302 300 297 301 301 298 302 294 288 285 284 285 286 287 286 285 284 283
299 302 302 301 302 305 304 304 307 310 305 302 306 300 305 305 298 288 284 286 289 288 286 285 285 283 282
302 304 305 305 306 308 309 311 310 312 304 308 312 307 314 312 304 295 291 290 286 286 287 286 287 287 284
309 305 305 310 313 314 315 316 315 317 312 316 319 316 315 315 307 304 301 297 291 291 291 289 287 285 287
301 310 312 312 313 314 316 319 320 319 315 317 324 320 320 323 320 312 308 301 295 293 288 287 289 289 290
293 299 302 306 309 315 318 320 322 321 320 318 320 321 322 324 324 322 313 308 302 297 295 293 292 292 292
293 297 301 303 306 311 313 317 320 319 320 319 319 319 320 323 322 327 319 314 305 300 298 298 297 293 290
295 296 300 301 304 310 312 313 316 318 319 316 317 317 319 321 321 321 318 315 312 310 307 307 302 296 293
295 297 301 304 309 313 315 317 318 319 320 320 320 319 317 318 317 315 312 308 307 311 309 314 310 303 304
302 301 304 307 310 311 314 318 321 322 322 323 323 318 312 310 314 314 307 307 306 308 310 311 314 313 314
303 302 304 307 311 314 315 317 320 322 324 325 326 324 320 318 322 328 319 316 310 307 304 302 301 301 301